Ana Sayfa
METAR-TAF:

METAR-TAF

Havaalanları :

Fayette Regional Air Center

La Grange, Teksas, Amerika Birleşik Devletleri

Enlem: 29-54-29N, Boylam: 096-57-00W, yükseklik: 99 m

Güncel hava durumu gözlemi

Rapor saat 13:15 UTC de 21 dakika önce yapıldı.
Rüzgar güney/güneydoğudan 3 kt
Sıcaklık 11°C
Nem 100%
Basınç 1018 hPa
Görüş mesafesi: 0.8 km
200 ft yükseklikte çok bulutlu
sis

METAR: K3T5 081315Z AUTO 16003KT 1/2SM FG OVC002 11/11 A3006 RMK AO2 T01050105

Saat: 07:36 (13:36 UTC)


TAF: eksik

4.000'den fazla havaalanı için hava durumu gözlemleri ve tahminleri (METAR ve TAF raporları).

Kullanılabilir istasyonlar harita üzerinde sarı ve kırmızı noktalarla gösterilir.

İstasyonun adını görmek için fareyi noktanın üzerinde gezdirin.

Sonrasında hava gözlem ve tahminlerini görmek için tıklayın.

Haritayı değiştirmek için: yaklaştırmak için siyah artı işaretli yeşil düğmeye ve uzaklaştırmak için de eksi işaretli düğmeye hızla tıklayın; bitişik haritalar için yeşil okları kullanın.


METAR-TAF: